EHI
0 0 0 0 0 0 0 0 0 0 0 1 3 5 9 14 21 25 21 15 14 19 23 25 27 28 27 29 33 35 35 34 30 27 24 23 19 14 11 8 8 7 5 2
0 0 0 0 0 0 0 0 0 0 0 1 3 6 10 15 21 24 20 15 14 17 23 26 27 27 27 30 32 32 33 32 29 26 24 23 21 17 13 9 7 7 6 4
0 0 0 0 0 0 0 0 0 0 1 3 4 5 8 13 17 19 18 16 14 17 22 25 25 26 28 31 30 29 29 29 27 24 23 22 21 18 14 8 5 6 5 4
0 0 0 0 0 0 0 1 1 2 3 4 5 5 5 7 10 11 13 14 14 16 19 20 21 23 27 28 27 25 25 25 23 22 21 20 19 16 11 6 4 4 4 4
0 0 0 1 0 0 1 2 2 3 4 6 7 7 5 4 5 7 9 10 11 13 14 15 17 22 26 24 21 19 19 18 18 18 17 17 15 12 8 6 4 3 3 3
0 0 0 0 0 0 1 1 2 3 5 6 6 6 5 3 5 7 7 8 11 13 13 14 18 23 25 21 17 14 12 14 14 12 12 13 13 10 7 5 3 3 3 3
0 0 0 0 0 0 0 0 1 3 6 5 4 4 3 3 6 8 7 8 11 12 13 15 18 22 23 19 15 12 10 11 10 8 7 9 10 9 6 3 2 2 2 2
0 0 0 0 1 0 0 0 1 3 5 4 3 2 2 3 6 7 6 6 8 10 11 13 16 19 21 18 15 13 12 11 8 5 4 6 7 7 5 3 3 3 3 2
0 0 0 0 0 0 0 1 2 3 4 4 3 2 2 4 8 8 7 7 8 9 10 12 14 16 18 17 16 14 13 10 5 2 3 4 6 5 4 4 4 4 3 3
0 0 0 0 0 0 0 1 3 4 4 4 3 3 5 8 10 10 11 12 13 13 13 13 13 13 14 16 16 16 14 9 4 1 2 4 4 4 3 3 3 3 3 2
0 0 0 0 0 0 2 3 4 5 4 3 4 5 7 10 11 10 11 15 17 17 16 13 11 10 11 14 16 17 15 9 3 2 2 3 3 3 2 1 1 1 1 1
0 0 0 0 0 1 3 5 5 5 4 4 5 7 9 11 10 7 8 12 17 19 16 12 9 8 9 11 13 15 14 8 4 2 2 2 2 1 1 0 0 0 0 0
0 0 0 0 0 1 2 4 4 4 4 5 6 8 11 11 8 6 5 8 12 15 14 10 6 5 5 7 10 12 10 7 3 1 1 0 0 0 0 0 0 0 0 0
0 0 0 0 0 0 1 1 2 3 5 6 7 9 11 9 6 5 5 7 9 9 9 7 4 2 2 3 6 8 7 4 2 1 0 0 0 0 0 0 0 0 0 0
0 0 0 0 0 0 0 1 2 3 5 6 7 8 8 6 4 4 6 7 8 7 6 4 2 1 0 1 3 3 3 2 1 1 0 0 0 0 0 0 0 0 0 0
0 0 0 0 0 0 0 1 2 3 4 5 5 5 6 5 4 3 4 6 6 5 4 3 2 1 1 1 1 1 1 0 0 0 0 0 0 0 0 0 0 0 0 0
0 0 0 0 0 0 0 1 2 4 5 5 4 4 4 5 4 3 3 3 3 3 3 2 2 2 2 2 2 1 0 0 0 0 0 0 0 0 0 0 0 0 0 0
0 0 0 1 1 1 2 3 4 5 6 5 4 3 3 3 2 1 1 1 1 1 1 1 1 1 1 1 1 1 0 0 0 0 0 0 0 0 0 0 0 0 0 0
0 0 0 1 3 4 4 5 5 5 5 4 4 3 2 2 1 1 0 0 0 0 0 0 0 0 0 0 0 0 0 0 0 0 0 0 0 0 0 0 0 0 0 0
0 0 0 1 2 4 4 4 4 4 4 3 3 3 3 2 2 2 1 0 0 0 0 0 0 0 0 0 0 0 0 0 0 0 0 0 0 0 0 0 0 0 0 0
0 0 0 0 1 2 3 3 3 3 3 3 3 3 3 3 3 3 2 1 0 0 0 0 0 0 0 0 0 0 0 0 0 0 0 0 0 0 0 0 0 0 0 0
0 0 0 0 0 1 1 2 2 2 2 2 2 2 2 2 2 2 2 1 0 0 0 0 0 0 0 0 0 0 0 0 0 0 0 0 0 0 0 0 0 0 0 0
0 0 0 0 0 0 0 1 1 1 1 1 1 1 1 1 1 1 1 0 0 0 0 0 0 0 0 0 0 0 0 0 0 0 0 0 0 0 0 0 0 0 0 0
0 0 0 0 0 0 0 0 0 0 0 0 0 0 0 0 0 0 0 0 0 0 0 0 0 0 0 0 0 0 0 0 0 0 0 0 0 0 0 0 0 0 0 0
0 0 0 0 0 0 0 0 0 0 0 0 0 0 0 0 0 0 0 0 0 0 0 0 0 0 0 0 0 0 0 0 0 0 0 0 0 0 0 0 0 0 0 0
0 0 0 0 0 0 0 0 0 0 0 0 0 0 0 0 0 0 0 0 0 0 0 0 0 0 0 0 0 0 0 0 0 0 0 0 0 0 0 0 0 0 0 0
0 0 0 0 0 0 0 0 0 0 0 0 0 0 0 0 0 0 0 0 0 0 0 0 0 0 0 0 0 0 0 0 0 0 0 0 0 0 0 0 0 0 0 0
Wind_Speed
4 3 2 2 4 5 5 8 8 8 7 8 6 5 4 2 2 3 2 2 4 5 4 4 5 5 4 4 4 5 6 6 7 6 6 5 5 5 5 5 6 5 5 5
1 1 2 1 2 4 4 4 4 3 6 5 3 1 1 2 3 3 3 3 3 4 4 4 5 5 4 4 4 5 6 6 5 5 5 5 5 5 4 4 4 4 4 5
2 2 2 2 4 4 3 3 6 6 7 2 1 2 3 3 2 3 3 3 4 5 4 4 4 4 4 4 4 5 5 5 5 5 5 6 6 5 5 4 4 4 4 4
2 2 4 7 3 3 3 2 3 3 3 3 4 3 2 1 3 2 2 2 3 3 3 3 3 3 4 4 4 4 4 4 4 5 5 5 5 5 4 3 4 3 3 3
3 2 3 4 1 2 3 2 2 3 2 1 2 3 2 2 1 2 1 2 2 3 3 3 4 4 4 4 3 3 3 3 3 5 5 5 5 5 4 4 4 3 3 3
4 4 5 6 3 1 3 3 3 3 4 3 3 2 3 2 1 3 3 2 3 3 3 4 3 4 5 4 4 3 3 3 3 4 5 5 4 4 4 4 4 4 3 3
4 3 6 5 4 1 4 6 3 4 5 5 4 4 3 1 2 3 3 4 4 4 4 3 3 5 5 4 3 3 3 4 4 4 5 4 4 4 4 5 5 4 4 3
4 4 7 3 0 4 5 2 2 2 3 3 3 3 2 2 3 4 5 5 5 4 4 3 3 5 5 3 2 4 4 5 4 4 4 4 5 4 5 5 5 5 4 4
6 7 5 2 3 3 2 2 2 2 3 5 4 3 3 3 3 4 4 4 5 5 4 4 3 4 4 2 4 5 6 5 5 5 4 5 5 5 4 4 4 4 3 3
2 4 3 4 3 3 2 2 2 3 4 5 5 3 4 3 3 3 4 4 4 5 5 4 3 3 3 3 4 6 6 5 5 6 6 5 4 4 4 3 3 3 3 3
2 3 3 3 3 3 2 1 2 3 3 5 6 5 4 4 3 3 3 3 4 5 5 4 3 3 3 4 5 7 6 5 6 6 6 6 6 5 5 4 3 3 3 3
4 3 2 3 4 2 1 1 2 4 3 3 5 5 5 4 3 3 3 4 4 5 5 4 4 4 3 3 5 7 6 5 5 6 6 6 7 7 12 10 11 10 8 6
5 3 2 4 3 2 0 0 1 3 4 4 3 4 5 5 3 4 4 4 4 5 5 4 5 5 3 3 5 6 6 6 5 5 6 6 6 6 7 8 13 14 12 11
3 2 2 2 1 0 2 2 3 4 3 4 4 5 6 6 5 5 5 4 4 5 6 6 6 5 3 4 6 7 7 7 6 5 5 6 6 6 6 6 6 7 9 11
2 2 3 1 1 1 2 3 5 4 4 4 5 6 7 7 5 4 4 4 6 6 6 6 6 5 4 5 7 7 6 5 6 6 6 6 6 7 7 7 7 6 6 7
1 1 2 3 2 2 2 3 4 4 5 5 5 6 7 7 6 5 5 5 6 6 5 6 5 4 4 6 7 7 6 10 8 7 7 7 7 7 7 7 7 6 6 5
2 2 3 3 3 2 3 3 4 5 6 6 5 7 8 8 7 6 6 6 6 6 5 6 5 5 5 6 7 6 7 8 11 8 7 7 7 7 7 7 7 7 6 6
1 2 3 4 4 4 4 4 5 6 6 6 6 7 7 7 6 6 6 6 7 8 7 5 5 6 6 6 6 6 7 7 7 7 7 7 7 7 8 8 8 8 6 7
2 3 3 3 4 6 6 5 5 6 7 7 7 7 6 6 6 6 7 8 7 6 5 5 7 7 7 7 8 6 8 8 8 7 7 9 8 7 7 8 7 7 6 6
4 4 5 5 5 6 6 6 7 7 6 7 8 8 7 6 6 7 8 7 4 3 4 5 6 6 6 7 9 7 8 8 8 8 7 7 8 7 7 7 7 7 6 6
4 4 6 6 6 6 6 7 8 8 6 7 8 8 8 7 6 6 7 6 4 5 6 7 6 5 6 7 9 7 7 8 8 7 7 7 7 7 7 7 7 6 6 6
3 4 5 6 7 6 6 6 7 8 8 8 8 9 9 8 7 7 7 4 4 5 5 5 5 7 8 8 7 7 7 8 7 7 6 7 7 7 7 7 6 6 6 5
3 4 5 6 7 7 7 7 7 8 8 8 8 8 8 6 5 6 5 3 4 7 6 5 8 10 10 7 7 7 8 7 7 6 6 6 6 6 6 7 6 5 5 5
5 6 6 7 8 8 8 7 7 7 8 7 7 7 7 6 6 5 5 6 8 8 7 7 11 11 10 6 6 7 7 7 7 6 7 6 6 6 6 6 5 5 5 6
6 7 7 8 8 6 7 8 9 9 8 7 7 6 5 5 6 5 6 7 8 9 7 8 10 10 7 6 6 6 6 6 6 6 6 6 6 5 5 5 5 4 4 4
6 6 6 6 5 5 5 5 6 5 6 6 6 5 5 5 7 6 6 7 9 8 7 5 6 7 6 6 7 7 6 6 7 6 6 6 6 6 5 5 5 4 4 4
7 6 6 6 6 5 5 5 6 5 5 6 6 5 5 6 6 7 7 6 6 6 6 5 5 5 6 6 6 6 6 5 6 6 5 5 5 5 5 5 4 4 3 3
Wind_Direction
212 226 188 174 180 170 168 176 179 216 223 251 252 247 251 247 172 135 139 140 150 155 156 159 161 170 177 178 174 174 180 190 202 198 189 188 188 188 192 194 202 200 197 198
261 252 173 163 209 186 187 182 200 204 249 262 272 215 200 213 171 162 174 168 163 155 158 163 164 170 170 173 174 172 184 194 194 184 182 185 186 183 185 192 191 184 191 193
227 279 86 251 225 197 187 190 175 199 230 250 264 232 216 208 176 182 205 184 170 166 172 174 170 165 169 170 162 169 182 187 182 178 182 185 181 177 186 191 181 174 180 181
137 117 205 239 246 193 172 208 208 204 224 213 216 229 248 216 179 185 189 187 173 163 163 168 157 148 145 144 151 161 168 177 178 174 179 175 167 173 180 175 167 169 166 162
123 155 266 284 256 163 155 250 223 187 199 188 124 64 346 338 151 176 173 180 170 162 157 146 142 147 140 140 148 155 162 169 170 167 165 163 168 172 167 152 143 141 136 136
129 150 218 240 258 220 131 254 233 185 184 173 114 124 256 306 83 96 92 95 97 103 110 116 134 134 134 141 142 163 170 160 139 140 147 155 158 153 139 133 132 126 115 116
152 190 255 256 282 118 168 229 225 193 186 175 184 203 197 105 87 94 87 85 80 88 96 108 125 124 127 135 148 160 138 126 122 123 130 131 123 120 119 118 116 111 106 94
154 183 244 286 320 179 220 245 193 193 186 158 140 119 109 111 98 86 79 80 82 79 77 82 103 114 116 131 135 120 115 109 107 108 115 117 114 110 112 119 119 117 110 93
186 208 240 266 244 268 244 243 241 179 160 137 126 123 110 107 100 86 80 82 88 96 85 66 66 100 113 118 118 116 109 103 99 99 97 102 109 112 111 115 116 114 113 107
239 261 275 293 291 296 278 252 233 168 152 135 127 126 113 108 100 89 79 88 98 100 91 76 65 77 102 106 112 112 110 108 105 102 93 86 88 91 96 99 107 112 113 110
249 277 319 323 324 322 341 38 98 111 127 136 128 126 123 117 110 100 87 78 86 99 98 85 75 73 82 101 116 113 113 115 111 107 105 94 82 69 81 68 87 117 120 116
225 234 215 270 307 324 51 108 131 121 110 121 131 135 125 118 117 108 97 85 87 90 96 93 94 87 76 94 115 120 116 114 112 113 111 109 104 84 60 69 68 69 75 88
233 236 234 266 298 308 267 9 109 126 139 134 119 127 122 114 113 106 101 93 94 95 94 93 88 82 75 93 107 114 117 116 116 117 118 117 114 113 102 74 63 60 61 70
230 215 245 253 258 103 117 102 96 99 110 120 119 113 108 103 102 97 93 90 94 91 87 86 80 69 62 90 99 104 108 108 113 114 114 112 110 109 107 105 91 69 55 61
279 217 215 196 147 109 106 107 103 105 103 98 108 112 110 107 99 91 86 89 91 85 78 77 75 61 54 91 98 98 101 106 108 108 107 107 104 101 99 98 96 90 81 64
293 128 152 153 155 144 124 130 135 133 120 110 110 113 109 104 97 87 78 85 93 86 78 76 67 53 67 91 96 90 90 100 104 104 101 101 101 101 100 98 95 90 83 75
185 178 173 169 171 169 158 149 141 131 122 121 122 116 107 103 95 83 74 73 81 80 76 79 74 61 69 87 95 97 97 97 96 96 96 97 98 98 98 97 94 88 78 69
187 185 179 175 172 160 146 133 126 124 124 126 118 112 108 110 109 100 90 83 80 70 57 61 76 78 76 84 90 96 98 95 94 96 96 95 95 95 96 96 96 94 87 78
93 97 100 106 134 135 128 123 119 116 115 118 114 109 103 101 104 100 92 85 81 74 50 55 75 80 86 90 94 94 96 97 94 92 95 97 95 95 97 98 99 97 95 91
78 83 93 93 102 115 120 117 112 108 110 116 113 107 101 97 98 96 88 79 64 72 78 77 81 82 85 91 95 96 99 102 102 100 99 100 100 99 98 99 99 97 93 90
82 85 98 101 94 96 108 115 115 112 107 110 112 111 106 97 93 94 92 83 53 59 75 80 83 86 86 94 94 97 99 100 100 100 103 103 102 100 99 100 99 97 95 92
84 92 101 104 101 97 96 104 111 112 109 107 107 107 104 99 94 84 75 82 82 80 81 79 82 89 94 94 94 97 99 100 100 100 102 104 106 106 105 104 101 99 97 97
86 92 99 105 105 98 90 92 103 110 110 109 109 108 105 100 97 100 89 66 81 85 84 84 92 91 90 89 93 96 98 100 102 103 104 105 107 109 109 107 105 106 105 103
86 91 98 102 100 98 95 91 93 96 97 97 101 108 111 104 82 70 90 93 92 91 87 90 92 90 89 89 93 97 100 102 104 106 106 105 106 107 108 110 110 109 108 108
89 93 100 104 101 99 100 98 93 92 93 89 86 85 86 95 105 101 95 95 96 93 89 84 85 88 89 91 93 96 98 101 106 108 107 108 109 110 110 111 112 111 110 109
86 86 87 92 99 103 102 99 95 94 98 95 85 83 85 88 94 94 91 90 89 90 89 87 84 85 88 91 92 95 98 100 101 102 107 108 110 110 110 109 109 108 109 108
81 84 86 83 81 88 94 97 99 98 100 106 101 94 96 95 94 94 94 91 89 87 86 84 84 87 90 92 91 91 93 97 100 102 104 106 108 109 111 111 108 106 107 109